Location: Unspecified
(0.0000°N, 0.0000°E)
Time: 22:25:09
(UTC+02:00)

IUS-9 SRM-1 - Visible Passes

Search period start: 18 August 2017 00:00
Search period end: 28 August 2017 00:00
Orbit: 219 x 19764 km, 26.4° (Epoch: 17 August)

Date Brightness Start Highest point End Pass type
(mag) Time Alt. Az. Time Alt. Az. Time Alt. Az.
18 Aug 6.4 16:39:46 10° W 20:40:56 42° S 20:57:03 13° ESE visible
21 Aug 6.4 07:18:57 10° NNW 07:27:58 23° NE 08:14:10 10° E visible
22 Aug 6.6 00:06:09 10° WSW 00:12:33 20° WSW 00:12:33 20° WSW visible
22 Aug 6.2 06:27:42 10° N 06:32:16 13° NE 06:40:59 10° ENE visible
22 Aug 5.9 23:01:08 10° WSW 23:21:41 39° SW 23:21:41 39° SW visible
23 Aug 5.4 21:41:27 10° WSW 22:30:09 47° S 22:30:41 47° SSE visible
24 Aug 5.7 18:40:11 10° WSW 21:33:11 45° S 21:39:35 30° SE visible
25 Aug 6.2 16:34:50 10° W 20:33:43 45° S 20:48:22 12° ESE visible
